Regional Weather Roundup
Issued by NWS Wakefield, VA

Home | Current Version | Previous Version | Graphics & Text | Print | Product List | Glossary On
Versions: 1 2 3 4 5 6 7 8 9 10 11 12 13 14 15 16 17 18 19 20 21 22 23 24 25 26 27
000
ASUS41 KAKQ 131715
RWRAKQ

REGIONAL WEATHER ROUNDUP
NATIONAL WEATHER SERVICE WAKEFIELD VA
1200 PM EST WED DEC 13 2017

Note: "fair" indicates few or no clouds below 12,000 feet with no
significant weather and/or obstructions to visibility. * = Denotes
station may not report precipitation (e.g., rain,snow,etc.),
thunder or fog.

VAZ042-051-052>054-056-131800-
NORTHERN VIRGINIA

CITY           SKY/WX    TMP DP  RH WIND       PRES   REMARKS
WASH NATIONAL  MOSUNNY   31   5  33 W23G31    29.84F WCI  18
DULLES         MOSUNNY   29   6  38 W15G25    29.82F WCI  18
FORT BELVOIR   SUNNY     32   5  32 W13G18    29.82F WCI  22
QUANTICO       MOSUNNY   33   7  33 NW15G28   29.86F WCI  23
FREDERICKSBRG* SUNNY     32   9  38 W14G23    29.85F WCI  22
STAFFORD*      SUNNY     32   4  31 W10       29.88F WCI  23
WARRENTON      SUNNY     33   1  25 W8        29.84F
CULPEPER*      SUNNY     32   4  30 W9        29.86F
MANASSAS*      NOT AVBL
LEESBURG*      SUNNY     32  10  40 NW16      29.82F WCI  21
WINCHESTER     SUNNY     27   9  46 W20G29    29.78F WCI  13
FRONT ROYAL*   SUNNY     30   7  37 MISG      29.79F
LURAY*         SUNNY     30   7  37 SW12      29.79F WCI  21
$$

VAZ048-049-060>072-079>083-131800-
CENTRAL AND SOUTH CENTRAL VIRGINIA

CITY           SKY/WX    TMP DP  RH WIND       PRES   REMARKS
RICHMOND       MOSUNNY   36   6  28 W14       29.88F
CHESTERFIELD*  NOT AVBL
PETERSBURG*    SUNNY     34   3  27 W14G22    29.91F WCI  24
HANOVER        SUNNY     32   5  32 W14G21    29.88F WCI  22
TAPPAHANNOCK*  SUNNY     32   9  37 W14G23    29.86F WCI  22
QUINTON*       FAIR      32   7  35 W14       29.87F WCI  22
CHARLOTTSVILLE SUNNY     32   5  32 SW7       29.83F
GORDONSVILLE*  SUNNY     31   6  33 SW6       29.84F
ORANGE*        SUNNY     32   5  32 SW12      29.85F WCI  23
LOUISA*        SUNNY     31   4  32 W10G20    29.89F WCI  22
BUMPASS*       FAIR      31   2  28 W7        29.86F
FARMVILLE*     SUNNY     34   8  34 SW13      29.87F WCI  25
CREWE*         FAIR      32   7  34 SW9G18    29.89F
FORT PICKETT*  NOT AVBL
CHASE CITY*    FAIR      32   4  30 W10G20    29.91F WCI  24
CLARKSVILLE*   FAIR      34   5  29 W9G16     29.92F
SOUTH HILL*    SUNNY     33   6  31 SW7G20    29.97F
LAWRENCEVILLE* FAIR      33   3  27 W7        29.90F
EMPORIA*       SUNNY     34   7  32 SW14G21   29.93F WCI  24
$$

VAZ088>098-131800-
SOUTHEAST VIRGINIA

CITY           SKY/WX    TMP DP  RH WIND       PRES   REMARKS
NORFOLK        SUNNY     34   7  32 W10G18    29.87F
VIRGINIA BEACH MOSUNNY   33   5  30 W15       29.86F WCI  23
NORFOLK NAVAL  MOSUNNY   34   8  33 W15G23    29.89F WCI  24
WEST POINT*    SUNNY    N/A N/A N/A W15G24    29.88F
SALUDA*        FAIR      31   6  34 W9G22     29.86F
NEWPORT NEWS   SUNNY     33   8  35 W18G24    29.87F WCI  22
LANGLEY AFB    SUNNY     33  10  37 W14G26    29.86F WCI  23
FORT EUSTIS    SUNNY     34   8  33 W13       29.85F
WILLIAMSBURG*  SUNNY     36   9  32 W15G25    29.88F
HR EXEC AP*    FAIR      34   8  33 W10G21    29.89F
FRANKLIN*      SUNNY     34   8  33 W12G21    29.90F WCI  25
US460-WAKEFLD  SUNNY     33   8  35 W14G23    29.89F WCI  23
$$

VAZ020-022-025-037-045-131800-
WEST CENTRAL AND SOUTHWEST VIRGINIA

CITY           SKY/WX    TMP DP  RH WIND       PRES   REMARKS
STAUNTON*      SUNNY     29   4  34 W7        29.80F
WAYNESBORO*    SUNNY     28   4  36 SW10G16   29.78F WCI  18
HOT SPRINGS VA SUNNY     19   0  42 W16       29.63F WCI   5
LYNCHBURG      SUNNY     31   2  29 SW10G17   29.86F WCI  22
DANVILLE       SUNNY     34   4  28 W13G21    29.92F WCI  25
SOUTH BOSTON*  FAIR      34   0  23 W10G18    29.92F
MARTINSVILLE   SUNNY     34   2  26 W5        29.92F
ROANOKE        SUNNY     32   3  29 W13       29.86F WCI  22
BLACKSBURG     SUNNY     28   5  37 W7        29.83F
DUBLIN*        SUNNY     31   7  36 W15       29.82F WCI  20
MARION*        SUNNY     29   3  34 SW13G20   29.83F WCI  18
HILLSVILLE*    SUNNY     27   4  38 W14       29.79F WCI  15
RICHLANDS*     FAIR      26   4  38 S7        29.81F
WISE*          SUNNY     30  10  43 SW9       29.82F
ABINGDON*      SUNNY     30   8  38 W10       29.87F WCI  21
$$

MDZ021>025-VAZ099-100-131800-
SOUTHERN MARYLAND AND THE DELMARVA PENINSULA

CITY           SKY/WX    TMP DP  RH WIND       PRES   REMARKS
PATUXENT RIVER MOSUNNY   31   6  35 W15G25    29.83F WCI  20
BAY BRIDGE APT SUNNY     28   5  37 MISG      29.81F
LEONARDTOWN    SUNNY     30   5  34 W12G18    29.84F WCI  21
DOVER          MOSUNNY   29   5  36 W23G33    29.74F WCI  15
GEORGETOWN     SUNNY     29   3  33 W20G29    29.78F WCI  16
EASTON         MOSUNNY   30   1  29 W16G26    29.84F WCI  19
CAMBRIDGE      SUNNY     28   3  34 NW21G28   29.82F WCI  15
SALISBURY      SUNNY     28   6  39 W20G29    29.80F WCI  15
OCEAN CITY     SUNNY     29   7  39 W16G29    29.80F WCI  17
WALLOPS ISLAND MOSUNNY   31   8  38 NW20G36   29.82F WCI  19
ACCOMACK*      SUNNY     32  10  40 NW21G26   29.84F WCI  19
$$

NCZ012>017-030>032-131800-
NORTH CENTRAL AND EASTERN NORTH CAROLINA

CITY           SKY/WX    TMP DP  RH WIND       PRES   REMARKS
ROANOKE RAPIDS FAIR      36   9  32 SW18      29.94F
RALEIGH        PTSUNNY   37   3  24 W9        29.95F
ELIZABETH CITY SUNNY     36  11  35 W13G28    29.90F
AHOSKIE*       SUNNY     35   8  33 W6        29.93F
EDENTON*       SUNNY     37  10  33 W12G21    29.93F
CURRITUCK*     SUNNY     33   9  35 W15       29.91F WCI  23
KILL DEVIL HLS SUNNY     33  10  38 W13G22    29.90F WCI  24
MANTEO         SUNNY     34  12  40 NW14G24   29.92F WCI  24
CAPE HATTERAS  SUNNY     37  15  40 NW14G24   29.93F
TARBORO*       NOT AVBL
GOLDSBORO      SUNNY     40   5  23 W16       29.94F
WASHINGTON     SUNNY     37   6  28 W9G22     29.95F
GREENVILLE     SUNNY     36   7  30 W8G18     29.98F
NEW BERN       SUNNY     39   9  29 W12G20    29.95F
WILMINGTON     SUNNY     44   9  23 W16G22    29.99F
$$

VAZ048-131800-
ELSEWHERE

CITY           SKY/WX    TMP DP  RH WIND       PRES   REMARKS
HARRISBURG PA  MOSUNNY   28   7  41 NW22G31   29.72F WCI  14
BALTIMORE      MOSUNNY   29   3  33 W18G29    29.79F WCI  16
ANNAPOLIS      SUNNY     29   7  39 NW14G30   29.81F WCI  18
ANDREWS AFB    SUNNY     29   4  34 W16G31    29.80F WCI  17
PHILADELPHIA   MOSUNNY   30   4  33 W16       29.69F WCI  19
GREENSBORO     PTSUNNY   36   6  28 W10       29.91F
ROCKY MOUNT    SUNNY     36   7  29 W9G21     29.95F
$$

VAZ100-131800-
MARINE

STATION/POSITION TIME  TEMP    WIND        PRES    WAVE   SWELL
                       AIR SEA DIR/SP/G            HT/PER HT/PER
                 (UTC) (F)     (DEG/KT/KT) (MB)    (FT/S) (FT/S)
BRANDYWINE LGT   1642   28     290/ 32/ 43 1007.5F
CAPE MAY NJ      1648   27 37  300/ 23/ 30 1006.8F
LEWES DE         1642   27 43  280/ 25/ 35 1007.7F
15NM E FENWICK I 1550   29 54  270/ 25/ 35 1008.2    7/ 6
OCEAN-CITY-INLET 1642   27 42  310/ 19/ 27 1009.3F
WACHAPREAGUE VA  1642   31 37  250/  8/ 17 1010.7F
THOMAS POINT MD  1700   27 43  290/ 22/ 26   N/A
GOOSES REEF MD   1700   30 46  290/ 21/ 29 1010.1    2/ 3
COVE POINT MD    1642   27     280/ 17/ 23 1010.8F
SOLOMONS ISLAND  1642   29 45  280/ 15/ 21 1010.1F
BISHOPS HEAD MD  1642   28 31  270/ 19/ 22 1010.8F
PINEY POINT MD   1642          320/ 20/ 22   N/A
POTOMAC MD       1700   31 47  280/ 19/ 25 1009.8    3/ 3
CAMBRIDGE MD     1642   29 42              1010.5F
LEWISETTA VA     1642   29 42  280/ 14/ 17 1010.9F
RAPPAHANNOCK LGT 1642          280/ 22/ 27 1011.4F
STINGRAY PT      1650   31     300/ 19/ 25 1011.0F
YORK RVR RNG VA  1642   31     290/ 19/ 25 1011.6F
YORKTOWN VA      1642   31 48  290/ 18/ 25 1011.4F
JAMESTOWN VA     1700      46  300/ 17/ 23   N/A     1/ 2
DOMINION TERM VA 1642   32     280/ 18/ 24 1011.8F
KIPTOPEKE VA     1642      41  300/ 19/ 24   N/A
CAPE HENRY VA    1642   31     270/ 19/ 26   N/A
WILLOUBY STN VA  1642          280/ 20/ 23 1011.1F
S CRANEY ISL VA  1642   32     250/ 12/ 17 1011.9F
CAPE HENRY BUOY  1630      54                N/A     4/ 5
1ST LANDING BUOY 1700   32 49  290/ 21/ 27 1011.1    3/ 3
CAPE CHARLES BUO 1651      51                N/A     3/ 4
64NM E OF VA BCH 1550   34 58  290/ 25/ 33 1010.9   10/ 7   2/11
DUCK PIER NC     1642   33 54  290/ 16/ 21 1012.0F
44100 DUCK FRF   1645      54                N/A     5/ 5
44056 DUCK FRF   1630      56                N/A     4/ 5
OREGON INLET NC  1642   33 44  280/ 15/ 24 1012.8F
HATTERAS NC      1642   35 49  300/ 18/ 26 1013.2F
DIAMOND SHLS NC  1650   37 75  300/ 21/ 31 1013.5F   8/ 6   2/13
CAPE LOOKOUT NC  1700          290/ 15/ 19 1014.2F
$$




USA.gov is the U.S. government's official web portal to all federal, state and local government web resources and services.